This is the latest recevied weather packets stored in our database for station/object 4S6DRJ-13. If no packets are shown the sender has not sent any weather packets the latest 10 day(s).
| Time | Temp. | Humidity | Pressure | Rain* | Wind** | Luminosity | Snow |
|---|---|---|---|---|---|---|---|
| 1788189153 | 28.33° C | 80% | 1009.2 hPa | 0 mm | 1.34 m/s, 211° | 0 W/m² | - |
| 1788189092 | 28.33° C | 80% | 1009.3 hPa | 0 mm | 1.79 m/s, 151° | 0 W/m² | - |
| 1788189031 | 28.33° C | 80% | 1009.4 hPa | 0 mm | 1.79 m/s, 221° | 0 W/m² | - |
| 1788188970 | 28.33° C | 80% | 1009.3 hPa | 0 mm | 2.24 m/s, 249° | 0 W/m² | - |
| 1788188909 | 28.33° C | 80% | 1009.3 hPa | 0 mm | 0.45 m/s, 355° | 0 W/m² | - |
| 1788188848 | 28.33° C | 80% | 1009.4 hPa | 0 mm | 0.89 m/s, 234° | 0 W/m² | - |
| 1788188786 | 28.33° C | 81% | 1009.3 hPa | 0 mm | 0.45 m/s, 231° | 0 W/m² | - |
| 1788188726 | 28.33° C | 81% | 1009.4 hPa | 0 mm | 0.89 m/s, 256° | 0 W/m² | - |
| 1788188672 | 28.33° C | 81% | 1009.2 hPa | 0 mm | 0.45 m/s, 290° | 0 W/m² | - |
| 1788188604 | 28.33° C | 81% | 1009.6 hPa | 0 mm | 2.68 m/s, 216° | 0 W/m² | - |
| 1788188543 | 28.33° C | 81% | 1009.2 hPa | 0 mm | 2.68 m/s, 251° | 0 W/m² | - |
| 1788188482 | 28.33° C | 81% | 1009.2 hPa | 0 mm | 1.34 m/s, 208° | 0 W/m² | - |
| 1788188421 | 28.33° C | 81% | 1009.4 hPa | 0 mm | 1.79 m/s, 232° | 0 W/m² | - |
| 1788188360 | 28.33° C | 81% | 1009.2 hPa | 0 mm | 3.13 m/s, 235° | 0 W/m² | - |
| 1788188299 | 28.33° C | 82% | 1009.2 hPa | 0 mm | 1.34 m/s, 256° | 0 W/m² | - |
| 1788188237 | 28.33° C | 82% | 1009 hPa | 0 mm | 0.89 m/s, 260° | 0 W/m² | - |
| 1788188177 | 28.33° C | 82% | 1009.2 hPa | 0 mm | 1.34 m/s, 216° | 0 W/m² | - |
| 1788188116 | 28.33° C | 82% | 1009.2 hPa | 0 mm | 1.34 m/s, 223° | 0 W/m² | - |
| 1788188055 | 28.33° C | 81% | 1009 hPa | 0 mm | 1.79 m/s, 260° | 0 W/m² | - |
| 1788187994 | 28.33° C | 81% | 1009.1 hPa | 0 mm | 1.34 m/s, 209° | 0 W/m² | - |
| 1788187933 | 28.33° C | 81% | 1009.2 hPa | 0 mm | 0.89 m/s, 224° | 0 W/m² | - |
| 1788187872 | 28.33° C | 81% | 1009 hPa | 0 mm | 1.79 m/s, 269° | 0 W/m² | - |
| 1788187811 | 28.33° C | 81% | 1009.2 hPa | 0 mm | 1.79 m/s, 177° | 0 W/m² | - |
| 1788187750 | 28.33° C | 81% | 1009.1 hPa | 0 mm | 2.24 m/s, 227° | 0 W/m² | - |
| 1788187689 | 28.33° C | 81% | 1009.2 hPa | 0 mm | 0.89 m/s, 235° | 0 W/m² | - |
* Rain latest hour (hover to see other rain measurements)
** Current wind speed in m/s (hover to see current wind gust speed)